TimeCST,TemperatureF,Dew PointF,Humidity,Sea Level PressureIn,VisibilityMPH,Wind Direction,Wind SpeedMPH,Gust SpeedMPH,PrecipitationIn,Events,Conditions,WindDirDegrees,DateUTC
12:00 AM,71,56,50,29.81,12,East,18.4,,,,,100,2013-04-24 06:00:00
12:00 AM,69.8,55.4,60,30.01,-9999.0,East,18.4,-,N/A,,Clear,100,2013-04-24 06:00:00
1:00 AM,69.8,55.4,60,29.99,-9999.0,East,15.0,-,N/A,,Clear,100,2013-04-24 07:00:00
2:00 AM,68.0,55.4,64,29.98,-9999.0,NE,3.5,-,N/A,,Clear,50,2013-04-24 08:00:00
3:00 AM,65,54,60,29.83,12,NE,5.8,,,,,40,2013-04-24 09:00:00
3:00 AM,64.4,53.6,68,29.98,-9999.0,NE,5.8,-,N/A,,Clear,40,2013-04-24 09:00:00
4:00 AM,64.4,55.4,73,29.99,-9999.0,NE,8.1,-,N/A,,Clear,50,2013-04-24 10:00:00
5:00 AM,66.2,55.4,68,30.01,-9999.0,NE,9.2,20.7,N/A,,Clear,50,2013-04-24 11:00:00
6:00 AM,66,62,84,29.89,12,ENE,12.7,,,,Clear,60,2013-04-24 12:00:00
6:00 AM,66.2,55.4,68,30.03,-9999.0,ENE,12.7,-,N/A,,Clear,60,2013-04-24 12:00:00
7:00 AM,71.6,57.2,60,30.04,-9999.0,NE,8.1,-,N/A,,Clear,50,2013-04-24 13:00:00
8:00 AM,77.0,53.6,44,30.05,-9999.0,ESE,9.2,-,N/A,,Clear,110,2013-04-24 14:00:00
9:00 AM,80,53,28,29.88,12,ESE,11.5,,,,,110,2013-04-24 15:00:00
9:00 AM,80.6,53.6,39,30.05,-9999.0,ESE,11.5,-,N/A,,Clear,110,2013-04-24 15:00:00
10:00 AM,82.4,53.6,37,30.05,-9999.0,East,12.7,-,N/A,,Clear,100,2013-04-24 16:00:00
11:00 AM,84.2,55.4,37,30.04,6.2,East,10.4,-,N/A,,Partly Cloudy,90,2013-04-24 17:00:00
12:00 PM,85,55,26,29.83,12,ESE,11.5,,,,Scattered Clouds,110,2013-04-24 18:00:00
12:00 PM,86.0,55.4,35,30.02,6.2,ESE,11.5,-,N/A,,Partly Cloudy,110,2013-04-24 18:00:00
1:00 PM,87.8,55.4,33,29.98,6.2,ESE,9.2,-,N/A,,Partly Cloudy,120,2013-04-24 19:00:00
2:00 PM,86.0,53.6,33,29.95,6.2,ESE,9.2,-,N/A,,Scattered Clouds,110,2013-04-24 20:00:00
3:00 PM,87,54,23,29.76,12,East,6.9,,,,Partly Cloudy,100,2013-04-24 21:00:00
3:00 PM,86.0,55.4,35,29.94,6.2,East,6.9,-,N/A,,Scattered Clouds,100,2013-04-24 21:00:00
4:00 PM,82.4,57.2,42,29.93,6.2,East,10.4,-,N/A,,Scattered Clouds,100,2013-04-24 22:00:00
5:00 PM,80.6,59.0,48,29.95,6.2,East,9.2,-,N/A,,Partly Cloudy,90,2013-04-24 23:00:00
6:00 PM,76,61,49,29.85,12,East,9.2,,,,Scattered Clouds,90,2013-04-25 00:00:00
6:00 PM,75.2,60.8,61,29.97,6.2,East,9.2,-,N/A,,Partly Cloudy,90,2013-04-25 00:00:00
7:00 PM,73.4,60.8,65,29.99,-9999.0,East,9.2,-,N/A,,Clear,100,2013-04-25 01:00:00
8:00 PM,73.4,60.8,65,30.00,-9999.0,East,8.1,-,N/A,,Clear,100,2013-04-25 02:00:00
9:00 PM,73,62,59,29.83,12,East,10.4,,,,Scattered Clouds,100,2013-04-25 03:00:00
9:00 PM,73.4,60.8,65,30.01,6.2,East,10.4,-,N/A,,Partly Cloudy,100,2013-04-25 03:00:00
10:00 PM,71.6,60.8,69,30.03,-9999.0,East,8.1,-,N/A,,Clear,80,2013-04-25 04:00:00
11:00 PM,71.6,60.8,69,30.03,-9999.0,East,8.1,-,N/A,,Clear,100,2013-04-25 05:00:00